North Vernon, Indiana, United States (47265)
Lat: 39.01N, Lon: 85.62W
Wx Zone: INZ072
Local Info
Past Weather Observations for Thursday, February 26, 2015

NOTE: This archive is for the closest National Weather Service station to North Vernon. Information may differ from the station used for current weather conditions.

Click here for Long-term Archive

Time Weather Temperature Dewpoint Humidity Pressure Winds Precip Visibility
23:53
Clear
9°F / -13°C °F / -18°C 66% 30.36 in
(1028 mb)
NW 8.1 mph
(NW 13 kph)
- 10SM
22:53
Overcast
12°F / -11°C 5°F / -15°C 73% 30.36 in
(1028 mb)
NNW 9.2 mph
(NNW 15 kph)
- 10SM
21:53
Overcast
10°F / -12°C 5°F / -15°C 79% 30.33 in
(1027 mb)
NW 6.9 mph
(NW 11 kph)
- 10SM
20:53
Clear
9°F / -13°C 1°F / -17°C 72% 30.3 in
(1026 mb)
Calm - 10SM
19:53
Partly Cloudy
14°F / -10°C 7°F / -14°C 73% 30.3 in
(1026 mb)
N 3.5 mph
(N 6 kph)
- 10SM
18:53
Overcast
14°F / -10°C 7°F / -14°C 73% 30.27 in
(1025 mb)
N 6.9 mph
(N 11 kph)
- 10SM
17:53
Overcast
18°F / -8°C 9°F / -13°C 68% 30.21 in
(1023 mb)
N 12.7 mph
(N 20 kph)
- 10SM
17:02
Overcast
19°F / -7°C 9°F / -13°C 63% 30.21 in
(1023 mb)
N 15 mph
(N 24 kph)
- 10SM
16:53
Overcast
19°F / -7°C 9°F / -13°C 63% 30.18 in
(1022 mb)
N 13.8 mph
(N 22 kph)
- 10SM
16:19
Overcast
19°F / -7°C 10°F / -12°C 68% 30.18 in
(1022 mb)
N 16.1 mph
(N 26 kph)
- 10SM
15:53
Overcast
19°F / -7°C 9°F / -13°C 63% 30.15 in
(1021 mb)
N 13.8 mph
(N 22 kph)
- 10SM
15:18
Overcast
19°F / -7°C 10°F / -12°C 68% 30.15 in
(1021 mb)
NNW 15 mph
(NNW 24 kph)
- 10SM
14:53
Overcast
21°F / -6°C 9°F / -13°C 58% 30.12 in
(1020 mb)
N 13.8 mph
(N 22 kph)
- 10SM
14:42
Overcast
19°F / -7°C 9°F / -13°C 63% 30.12 in
(1020 mb)
N 11.5 mph
(N 19 kph)
- 10SM
14:14
Overcast
19°F / -7°C 10°F / -12°C 68% 30.12 in
(1020 mb)
N 15 mph
(N 24 kph)
- 10SM
13:53
Overcast
19°F / -7°C 9°F / -13°C 63% 30.12 in
(1020 mb)
N 9.2 mph
(N 15 kph)
- 10SM
12:53
Overcast
19°F / -7°C 9°F / -13°C 63% 30.12 in
(1020 mb)
NNE 10.4 mph
(NNE 17 kph)
- 10SM
11:53
Overcast
19°F / -7°C 9°F / -13°C 63% 30.12 in
(1020 mb)
NE 12.7 mph
(NE 20 kph)
0.00 in
(0.00 mm)
10SM
11:02
Overcast
Light Snow
19°F / -7°C 10°F / -12°C 68% 30.09 in
(1019 mb)
N 12.7 mph
(N 20 kph)
0.00 in
(0.00 mm)
3SM
10:53
Overcast
Light Snow
18°F / -8°C 10°F / -12°C 73% 30.06 in
(1018 mb)
NNE 12.7 mph
(NNE 20 kph)
0.00 in
(0.00 mm)
2 1/2SM
10:34
Overcast
Light Snow
18°F / -8°C 10°F / -12°C 73% 30.06 in
(1018 mb)
NNE 11.5 mph
(NNE 19 kph)
0.00 in
(0.00 mm)
2SM
09:53
Overcast
Light Snow
18°F / -8°C 10°F / -12°C 73% 30.06 in
(1018 mb)
NNE 12.7 mph
(NNE 20 kph)
0.00 in
(0.00 mm)
1 1/4SM
09:13
Overcast
Light Snow
18°F / -8°C 10°F / -12°C 73% 30.06 in
(1018 mb)
N 11.5 mph
(N 19 kph)
0.00 in
(0.00 mm)
1 1/2SM
08:53
Overcast
Light Snow
18°F / -8°C 10°F / -12°C 73% 30.04 in
(1017 mb)
NNE 12.7 mph
(NNE 20 kph)
0.00 in
(0.00 mm)
2SM
08:38
Overcast
Light Snow
18°F / -8°C 10°F / -12°C 73% 30.04 in
(1017 mb)
NNE 11.5 mph
(NNE 19 kph)
0.00 in
(0.00 mm)
2SM
08:25
Overcast
Light Snow
18°F / -8°C 10°F / -12°C 73% 30.04 in
(1017 mb)
NNE 13.8 mph
(NNE 22 kph)
0.00 in
(0.00 mm)
1 1/4SM
08:16
Overcast
Light Snow
18°F / -8°C 10°F / -12°C 73% 30.01 in
(1016 mb)
N 10.4 mph
(N 17 kph)
0.00 in
(0.00 mm)
2SM
08:13
Overcast
Light Snow
18°F / -8°C 10°F / -12°C 73% 30.01 in
(1016 mb)
NNE 11.5 mph
(NNE 19 kph)
0.00 in
(0.00 mm)
1 3/4SM
07:53
Overcast
Light Snow
19°F / -7°C 12°F / -11°C 73% 30.01 in
(1016 mb)
NNE 11.5 mph
(NNE 19 kph)
0.00 in
(0.00 mm)
2SM
07:50
Overcast
Light Snow
19°F / -7°C 12°F / -11°C 73% 30.01 in
(1016 mb)
NNE 9.2 mph
(NNE 15 kph)
0.00 in
(0.00 mm)
2SM
07:11
Overcast
Light Snow
19°F / -7°C 10°F / -12°C 68% 29.98 in
(1015 mb)
NE 10.4 mph
(NE 17 kph)
0.00 in
(0.00 mm)
4SM
07:01
Overcast
Light Snow
19°F / -7°C 12°F / -11°C 73% 29.98 in
(1015 mb)
NE 11.5 mph
(NE 19 kph)
0.00 in
(0.00 mm)
2SM
06:53
Overcast
Light Snow
19°F / -7°C 12°F / -11°C 73% 29.98 in
(1015 mb)
NNE 11.5 mph
(NNE 19 kph)
0.00 in
(0.00 mm)
3SM
05:53
Overcast
Light Snow
19°F / -7°C 12°F / -11°C 73% 29.95 in
(1014 mb)
NE 11.5 mph
(NE 19 kph)
0.00 in
(0.00 mm)
5SM
04:53
Overcast
Light Snow
21°F / -6°C 12°F / -11°C 68% 29.92 in
(1013 mb)
NNE 8.1 mph
(NNE 13 kph)
0.00 in
(0.00 mm)
7SM
03:53
Overcast
Light Snow
21°F / -6°C 14°F / -10°C 74% 29.92 in
(1013 mb)
NE 8.1 mph
(NE 13 kph)
0.00 in
(0.00 mm)
6SM
00:53
Overcast
25°F / -4°C 16°F / -9°C 69% 29.92 in
(1013 mb)
NE 8.1 mph
(NE 13 kph)
- 10SM
Time Weather Temperature Dewpoint Humidity Pressure Winds Precip Visibility


Weather for websites

WeatherForYou.com, LLC is not responsible for any damages or problems caused by this service. Current weather conditions are obtained from the closest station including government and personal stations which may have varying degrees of accuracy. Weather forecasts are derived from the NOAA NDFD. Like all things, this site belongs to Jesus Christ... He just trusts me to maintain it. If you have any questions or comments email webmaster@weatherforyou.com

Copyright © 2015, WeatherForYou.com LLC. All rights reserved.